Location: Bambrugge
(50.9212°N, 3.9299°E)
Time: 13:42:38
(UTC+00:00)

Cosmos 1862 Rocket - Pass Details

Date: 23 May 2024
Orbit: 601 x 629 km, 82.5° (Epoch: 18 June)

Event Time Altitude Azimuth Distance (km) Brightness Sun altitude
Exits shadow 01:04:19 29° 220° (SW) 1,124 4.3 -16.1°
Maximum altitude 01:06:17 54° 284° (WNW) 742 3.9 -16.0°
Drops below altitude 10° 01:10:34 10° 2° (N) 1,969 7.3 -15.8°
Sets 01:12:51 0° 8° (N) 2,881 8.6 -15.6°
